Track STARLINK-1300 now! 10-day predictions STARLINK-1300 is classified as:
1 45374U 20019Q 22177.54576720 .00001165 00000-0 97155-4 0 9994 2 45374 53.0549 116.6271 0001519 75.6155 284.5003 15.06387484125938